Погода Буй

Погода Буй : погода сейчас, прогноз погоды и архив. Всё, что Вы хотите узнать о погоде Буй!

Хотите узнать прогноз погоды Буй? Тогда Вам сюда: Погода Буй

Поиск расширенной информации на нашем сайте:

Другие новости

Новости СМИ2

Главная страница сайта

Новости сайта

02.10.2013

Напоминаем, что на нашем новом сайте вы можете получить высокодетализированные прогнозы погоды по пунктам России, СНГ и мира (включающие важные для авиации метеовеличины, такие как направление и скорость ветра, видимость, явления погоды, количество и форма облачности, нижняя и верхняя граница облачности), а также ознакомиться с разнообразными материалами по авиационной метеорологии и подборкой полезных ссылок на эту тему.

Сайт Метеоцентр.Азия посвящён разработке технологий оптимизации авиаметеорологического обслуживания, включая проектирование и перспективное создание нескольких автоматизированных авиаметеорологических систем:
- система выпуска высокодетальных прогностических карт явлений погоды для нижнего воздушного пространства по России и ближнему зарубежью;
- система верификации прогнозов TAF (выпускаемых синоптиками официальных АМСГ РФ и ближнего зарубежья) и AUTOTAF (выпускаемых сайтом Метеоцентр.Азия) - выявление ошибок, онлайн-сопоставление с фактической погодой METAR, автоматическое внесение коррективов в прогнозы при резком отклонении фактической погоды от прогноза, подсчёт оправдываемости прогнозов по элементам и в целом;
- система обработки, анализа и отображения авиаметеорологической информации для применения провайдерами метеорологической информации.


Погода Буй - сегодня

Время (UTC), дата Ветер
(°,м/с) 
Видим.   Явления Облачность Т
(°С)
Тd
(°С)
f(%) Тe
(°С)
Pmin
(гПа)
dP
(гПа)
Po
(мм)
O2
(г/м3)
Тmin Tmax R s Состояние
почвы
06 23.04.17 190 (Ю) 4{10}  20000 м  слаб. ливневой дождь  10/10 300 м кучево-дожд. 
[Cb cap]
+3.1 -0.2 79 +1  990  0.7  733  292           
09 23.04.17 180 (Ю) 4-11{11}  12000 м  слаб. ливневой дождь  10/10 300 м кучево-дожд. 
[Cb cap]
+2.9 +1.1 88 +1  991.8  1.7  734  293           
12 23.04.17 210 (ЮЗ) 4{11}  12000 м  слаб. ливневой дождь  10/10 300 м кучево-дожд. 
[Cb cap]
+3 +1.8 92 +1  993.9  2.1  736  293           
15 23.04.17 240 (ЮЗ) 3{12}  20000 м  {ливн. осадки}  10/10 600 м кучево-дожд. 
[Cb cap]
+3.3 +1.3 87 +2  997.4  3.4  739  294    +3.4     
18 23.04.17 250 (З) 20000 м  {ливн. осадки}  10/10 600 м кучево-дожд. 
[Cb cap]
+2.3 +1.4 94 +1  1001.5  742  296           
21 23.04.17 250 (З) 20000 м    10/10 600 м кучево-дожд. 
[Cb cap]
+2.2 +0.6 89 +2  1004.8  3.2  744  297           
00 24.04.17 250 (З) 20000 м    6/6 600 м кучево-дожд. 
[Cb cap]
+0.2 +0.2 100 -1  1006.3  1.4  745  300           
03 24.04.17 тихо ()   1500 м  дымка  10/10 600 м кучево-дожд. 
[Cb cap]
-0.9 -0.9 100 -1  1008.1  1.8  746  302  -1        мокрая 
06 24.04.17 тихо ()   4000 м  дымка  10/10 600 м кучево-дожд. 
[Cb cap]
+0.8 +0.8 100 +1  1008.7  0.6  747  300           
09 24.04.17 270 (З) 50000 м    8/8 600 м кучево-дожд. 
[Cb cap]
+7.6 -2.6 48 +9  1007.5  -0.8  746  293           
12 24.04.17 040 (СВ) 50000 м    9/9 600 м кучево-дожд. 
[Cb cap]
+9.2 -3.9 39 +9  1006.7  -0.7  746  291           
15 24.04.17 050 (СВ) 50000 м    8/8 600 м кучево-дожд. 
[Cb cap]
+7.8 -4.4 42 +7  1006.5  -0.2  746  293    +9.7       
18 24.04.17 тихо ()   20000 м    4/0 верхняя 
[Ci fib]
+3.2 -2.2 68 +3  1007.9  1.2  746  298           
21 24.04.17 тихо ()   20000 м    ясно 
-0.3 -2.3 86 -0  1008.4  0.4  747  301           
00 25.04.17 тихо ()   20000 м    ясно 
-1.4 -2 96 -1  1008.7  0.2  747  303           
03 25.04.17 тихо ()   30000 м    6/0 верхняя 
[Ci fib]
-0.9 -1.7 94 -1  1009.9  1.3  748  302  -1.7        влажная 
06 25.04.17 020 (С) 50000 м    6/0 верхняя 
[Ci fib]
+6.4 -2 55 +7  1011.2  1.6  749  295           
09 25.04.17 тихо ()   18000 м  слаб. ливневой дождь  10/10 300 м кучево-дожд. 
[Cb cap]
+4.8 +0.8 75 +5  1012.9  1.6  750  297           
12 25.04.17 230 (ЮЗ) 50000 м  {ливн. осадки}  10/10 300 м кучево-дожд. 
[Cb cap]
+7.4 -0.7 56 +8  1013.9  1.1  751  295           
15 25.04.17 тихо ()   50000 м    6/6 1000 м 
[Cu hum]
+8 -3.5 44 +8  1014.8  0.9  752  295    +9.1  0.3     
18 25.04.17 тихо ()   20000 м    ясно 
+3.8 -0.1 76 +4  1016.5  1.5  753  299           
21 25.04.17 110 (В) 20000 м    ясно 
+0.7 -0.5 92 +1  1017.5  0.8  753  303           
00 26.04.17 110 (В) 20000 м    ясно 
-0.7 -1.9 92 1017.7  0.1  753  305           
03 26.04.17 100 (В) 15000 м    6/0 средняя 
[Ac trans]
+0.6 -2.7 79 +1  1016.4  -1.2  753  303  -1        замёрзшая 
06 26.04.17 150 (ЮВ) 50000 м    10/0 средняя 
[Ac As]
+8.4 -3.4 43 +7  1014.7  -1.4  752  294           
Время (UTC), дата Ветер
(°,м/с) 
Видим.   Явления Облачность Т
(°С)
Тd
(°С)
f(%) Тe
(°С)
Pmin
(гПа)
dP
(гПа)
Po
(мм)
O2
(г/м3)
Тmin Tmax R s Состояние
почвы

Для получения пояснительной информации подведите курсор к названию столбца.

ПОГОДА Буй - архив

Всё, что Вы хотите узнать о погоде Буй - удобно и подробно!

Выберите нужную дату (начиная с 1 января 2015* года) и нажмите кнопку "Найти".
Будут отображены архивные сводки погоды по пункту Буй, начиная с указанной даты.


Отображать данные в формате CSV (для использования в таблицах Excel)


Внимание! Наш архив погоды предназначен исключительно для личного некоммерческого использования в познавательных целях. Если Вам необходимы официальные справки о состоянии погоды (для производственных, юридических, коммерческих и т.п. целей), обращайтесь в органы Росгидромета.

*Примечание: данная дата относится к архиву по метеостанциям СССР (Россия, СНГ, Балтия).
Архив по метеостанциям Зарубежной Европы и Азии (кроме Китая) хранится 10 дней, по другим регионам земного шара (Китай, Африка, Америка, Австралия, Океания) - 1 день.

Буй - район местоположения метеостанции


Название, широта, долгота, высота метеостанции:
Буй 58.5°ш. 41.5°д. 103 м над ур. моря [Российская Федерация]

Дополнительная информация

В oтличие oт бoльшинства пoгoдных сайтoв мы публикуем пoдрoбную метеoинфoрмацию в детальнoм прoфессиoнальнoм фoрмате.

Характеристики температуры и влажнoсти вoздуха измеряются на высoте 2 м в тени вдали oт зданий и деревьев.
Скoрoсть ветра измеряется на высoте 10 м (на урoвне рoста челoвека скoрoсть ветра ниже в 1.5-2 раза). Если метеoстанция нахoдится в гoрoде или в лесу, тo скoрoсть ветра занижена на 2-4 м/с пo сравнению с oткрытым местoм. Скoрoсть ветра над акватoриями крупных рек и oзёр, а также на вершинах хoлмoв на 2-5 м/с выше, чем в oбычных услoвиях.
Атмoсфернoе давление в разных тoчках местнoсти мoжет значительнo oтличаться oт давления на метеoстанции, в зависимoсти oт услoвий рельефа (при пoдъёме на 10 м давление пoнижается примернo на 1 мм рт.ст.).